Regional Weather Roundup
Issued by NWS Portland, ME

Current Version | Previous Version | Text Only | Print | Product List | Glossary Off
Versions: 1 2 3 4 5 6 7 8 9 10 11 12 13 14 15 16 17 18 19 20 21 22 23 24 25 26 27 28 29 30 31 32 33 34 35 36 37 38 39 40 41 42 43 44 45 46 47 48 49 50
000 ASUS41 KGYX 242105 RWRGYX WEATHER ROUNDUP FOR MAINE AND NEW HAMPSHIRE NATIONAL WEATHER SERVICE GRAY ME 500 PM EDT SAT JUN 24 2017 MEZ002-005-006-010-012-015-018-020-021-024-026-027-029-242200- MAINE CITY SKY/WX TMP DP RH WIND PRES REMARKS PORTLAND PTSUNNY 84 55 36 W15 29.61R SANFORD MOSUNNY 82 60 47 W12 29.64R BAR HARBOR MOSUNNY 80 62 54 VRB5 29.56R WISCASSET MOSUNNY 81 66 60 VRB6 29.61R ROCKLAND PTSUNNY 80 67 64 W8 29.58R FRYEBURG SUNNY 82 53 36 W12 29.65R AUGUSTA SUNNY 81 54 39 NW12G23 29.61R WATERVILLE MOSUNNY 81 59 47 W9G16 29.58R BANGOR MOSUNNY 81 56 42 NW13G18 29.57R GREENVILLE N/A 74 55 51 VRB5 29.60R MILLINOCKET SUNNY 78 53 41 W10G18 29.56R HOULTON SUNNY 76 62 62 NW10 29.51S PRESQUE ISLE MOSUNNY 76 60 57 W9 29.52S FRENCHVILLE MOSUNNY 73 52 47 W13G21 29.52R CARIBOU MOSUNNY 75 58 55 VRB3 29.51R $$ NHZ002-005-008-009-011-012-014-242200- NEW HAMPSHIRE CITY SKY/WX TMP DP RH WIND PRES REMARKS PORTSMOUTH PTSUNNY 84 58 40 NW12 29.62R ROCHESTER MOSUNNY 82 55 39 NW16 29.63R NASHUA MOSUNNY 84 57 39 W9 29.67R MANCHESTER PTSUNNY 85 54 34 NW8 29.64R CONCORD MOSUNNY 85 54 34 NW14 29.66R LACONIA MOSUNNY N/A N/A N/A NW10 29.67R PLYMOUTH PTSUNNY 78 55 45 CALM 29.66R BERLIN SUNNY 78 51 38 NW8 29.67R WHITEFIELD MOSUNNY 78 54 43 W10 29.68R JAFFREY PTSUNNY 82 58 43 W13G18 29.72R KEENE MOSUNNY 81 60 48 W8 29.70R LEBANON MOSUNNY 83 56 39 W8 29.68R MT WASHINGTON PTSUNNY 48 46 93 W38G46 N/A $$ VTZ005-007-008-242200- VERMONT CITY SKY/WX TMP DP RH WIND PRES REMARKS ST JOHNSBURY N/A 80 56 43 MISG 29.65R MONTPELIER MOSUNNY 76 57 51 W8 29.73R BURLINGTON PTSUNNY 79 55 43 W8 29.66R $$ MAZ007-012-024-CTZ003-RIZ002-NYZ038-NYZ072-242200- SOUTHERN NEW ENGLAND AND NY CITY SKY/WX TMP DP RH WIND PRES REMARKS BOSTON MOSUNNY 87 55 33 W21G30 29.64R WORCESTER MOSUNNY 80 56 43 W15 29.73R NANTUCKET SUNNY 73 66 78 W22G30 29.68R PROVIDENCE MOSUNNY 86 58 38 NW12G17 29.69R HARTFORD PTSUNNY 82 53 36 W16 29.74R ALBANY MOSUNNY 81 53 37 NW13G21 29.76R NEW YORK CITY PTSUNNY 85 53 33 NW21G26 29.77R $$ ANZ081-ANZ082-ANZ150-NHZ014-MEZ023>029-242200- COASTAL MARINE OBSERVATIONS STATION/POSITION TIME TEMP WIND PRES WAVE AIR SEA DIR/SP/G HT/PER (UTC) (F) (DEG/KT/KT) (MB) (FT/S) MATINICUS ROCK 2000 60 260/ 15/ 16 1000.6F ISLE OF SHOALS 2000 80 320/ 16/ 17 1002.0R JEFFREYS LEDGE 2006 61 N/A 3/ 6 CASHES LEDGE BUO 1950 66 60 1001.4 4/ 7 GEORGES BANK BUO 1950 62 53 1005.4 8/ 7 $$ .............KEY.............. WCI - WIND CHILL TC - TEMPERATURE IN CELSIUS VSB - VISIBILITY IN MILES HX - HEAT INDEX FAIR- INDICATES FEW OR NO CLOUDS BELOW 12,000 FT, WITH NO SIGNIFICANT WEATHER AND/OR OBSTRUCTIONS TO VISIBILITY.

USA.gov is the U.S. government's official web portal to all federal, state and local government web resources and services.